Location: Grand Rapids
(42.9630°N, 85.6680°W)
Time: 01:20:19
(UTC-04:00)

S-56A Canister/Altair - Pass Details

Date: 05 June 2024
Orbit: 637 x 2489 km, 38.9° (Epoch: 21 June)

Event Time Altitude Azimuth Distance (km) Brightness Sun altitude
Rises 03:05:46 0° 226° (SW) 5,739 - -21.6°
Reaches altitude 10° 03:09:26 10° 222° (SW) 4,893 - -21.4°
Exits shadow 03:14:38 27° 211° (SSW) 3,818 10.4 -21.0°
Maximum altitude 03:23:14 53° 152° (SSE) 2,909 10.1 -20.4°
Drops below altitude 10° 03:36:50 10° 82° (E) 4,839 12.1 -19.2°
Sets 03:40:25 0° 77° (ENE) 5,675 12.6 -18.9°
